Tracking 35334 objects as of 13-Sep-2026
HD Live streaming from Space Station
objects crossing your sky now

FLOCK 4A 14


FLOCK 4A 14 is no longer on orbit
FLOCK 4A 14 is classified as:


NORAD ID: 44101
Int'l Code: 2019-018Z
Launch date: April 1, 2019
Source: United States (US)
Launch site: SRIHARIKOTA (SRI)
Decay date: 2023-05-09
Your satellite tracking list
Your tracking list is empty




NASA's NSSDC Master Catalog

Two Line Element Set (TLE):
1 44101U 19018Z   23127.77530600  .14262927  24560-5  55126-3 0  9999
2 44101  97.2266 195.7953 0014580 264.2326  95.7312 16.42508163228865
Source of the keplerian elements: AFSPC